www.pogodaiklimat.ru

Погода и климат >> Архив погоды >> Россия >> Амурская область >> Саскаль


ПОГОДА в Саскале

  • Прогноз погоды в Саскале
  • Монитор погоды в Саскале

АРХИВ ПОГОДЫ в Саскале

Время (UTC), дата Ветер
(напр.,м/с)
 
Видим.   Явления Облачность Т
(С)
Тd
(С)
f
(%)
Тe
(С)
Тes
(С)
Комфортность P
(гПа)
Po
(гПа)
Тmin
(С)
Tmax
(С)
R
(мм)
R24
(мм)
S
(см)
03 18.08 С 4 20 км в посл. час ливневой дождь 10/10 600 м
[Cb cap]
+14.1 +11.7 85 +13 +13 1004.2 979.4
06 18.08 С 3 4000 м слаб. ливневой дождь 9/9 600 м
[Cb cap]
+14.0 +12.5 91 +13 +14 1005.0 980.1
09 18.08 С 2 10 км {ливн. осадки} 9/9 600 м
[Cb calv]
+13.8 +12.4 91 +13 +13 1005.9 981.0
12 18.08 С 1 10 км в посл. час ливневой дождь 9/9 600 м
[Cb cap]
+12.1 +11.7 97 +12 +12 1007.2 982.2 +14.4 2
15 18.08 С 1 10 км {ливн. осадки} 9/9 600 м
[Cb cap]
+11.4 +11.0 97 +11 +11 1007.9 982.7
18 18.08 штиль 0 10 км {ливн. осадки} 9/8 600 м
[Sc Ac trans]
+10.6 +10.5 99 +10 +10 1008.8 983.5
21 18.08 С 1 10 км 10/10 600 м
[Sc]
+11.6 +11.4 99 +11 +11 1009.6 984.4
00 19.08 З 2 50 км 10/10 600 м
[Cb cap]
+12.5 +11.7 95 +11 +11 1010.5 985.3 +10.5 0.0
03 19.08 С 2 50 км {ливн. осадки} 9/9 600 м
[Cb cap]
+14.7 +11.5 81 +14 +16 1010.6 985.6
06 19.08 З 3 50 км {ливн. осадки} 9/9 600 м
[Cb cap]
+15.9 +11.0 73 +15 +16 1010.9 986.1
09 19.08 СЗ 2 50 км 9/9 600 м
[Cu Sc]
+16.4 +11.8 74 +17 +17 1011.2 986.4
12 19.08 штиль 0 50 км 9/1 600 м
[Sc Ac trans Cc]
+12.1 +11.6 97 +11 +11 1012.3 987.1 +16.6 0.0
15 19.08 Ю 1 4000 м дымка 9/0
[Ac und]
+11.2 +11.1 99 +11 +11 1012.9 987.6
18 19.08 штиль 0 500 м туман 10/0
[Ac und]
+8.3 +8.2 99 +7 +7 1013.3 987.7
21 19.08 штиль 0 50 м туман 10/0
[As trans Cs]
+6.4 +6.3 99 +5 +5 1013.5 987.7
00 20.08 штиль 0 10 км {туман} 9/0
[Ac und]
+13.9 +12.1 89 +13 +16 1012.8 987.7 +6.1
03 20.08 Ю 2 20 км 9/9 600 м
[Cu Sc]
+18.1 +11.7 66 +19 +20 1011.4 986.7
06 20.08 ЮВ 2 20 км 9/9 600 м
[Sc]
+19.8 +11.7 60 +22 +23 комфорт 1009.9 985.4
09 20.08 ЮВ 1 20 км 9/6 600 м
[Sc Ac As]
+18.9 +13.2 69 +21 +21 комфорт 1009.6 985.1
12 20.08 В 1 20 км 10/9 600 м
[Sc Ac und]
+16.5 +12.7 78 +17 +17 1009.8 985.0 +20.5
15 20.08 В 2 20 км 9/9 600 м
[Sc]
+15.4 +12.4 82 +15 +15 1008.9 984.1
18 20.08 СВ 1 10 км слаб. ливневой дождь 10/10 600 м
[Cb cap]
+13.7 +13.1 96 +14 +14 1008.3 983.3
21 20.08 В 2 10 км слаб. ливневой дождь 10/10 600 м
[Cb cap]
+13.6 +13.0 96 +13 +13 1007.2 982.3
00 21.08 СВ 2 50 км в посл. час ливневой дождь 10/10 600 м
[Cb cap]
+15.0 +13.9 93 +15 +15 1006.5 981.7 +13.5 3
03 21.08 В 3 50 км 9/9 600 м
[Cb cap]
+19.2 +14.6 75 +21 +22 комфорт 1005.4 981.0
06 21.08 ЮВ 2 50 км в посл. час ливневой дождь 9/9 600 м
[Cb cap]
+20.7 +15.7 73 +24 +25 комфорт 1004.4 980.1
09 21.08 В 2 50 км {ливн. осадки} 9/9 600 м
[Cb cap]
+19.5 +16.4 82 +22 +22 комфорт 1004.9 980.5
12 21.08 СВ 2 50 км {ливн. осадки} 9/9 600 м
[Sc]
+17.4 +15.8 90 +18 +18 1005.9 981.3 +21.2 2
15 21.08 СВ 2 50 км 9/9 600 м
[Sc]
+17.3 +15.8 91 +18 +18 1006.4 981.8
18 21.08 СВ 2 50 км в посл. час ливневой дождь 10/10 600 м
[Cb cap]
+16.4 +15.6 95 +16 +16 1006.6 981.9
21 21.08 СВ 3 20 км {ливн. осадки} 10/10 600 м
[Cb cap]
+15.6 +15.0 96 +15 +15 1007.5 982.7
00 22.08 СВ 3 50 км {ливн. осадки} 10/8 600 м
[Sc Cc]
+17.5 +14.6 83 +18 +18 1008.1 983.5 +15.3 0.4
03 22.08 СВ 4 50 км в посл. час ливневой дождь 10/9 600 м
[Cb cap Ci fib]
+20.0 +14.5 71 +22 +23 комфорт 1007.9 983.5
06 22.08 В 2 50 км в посл. час ливневой дождь 9/9 600 м
[Cb cap]
+18.3 +16.0 86 +19 +20 1008.5 983.9
09 22.08 СВ 1 50 км {ливн. осадки} 10/5 600 м
[Cb calv Ac cuf Cc]
+19.4 +15.7 79 +22 +23 комфорт 1009.0 984.5
12 22.08 С 1 50 км {ливн. осадки} 9/9 600 м
[Cb cap]
+17.0 +16.0 94 +18 +18 1010.4 985.7 +20.4 0.0
00 23.08 С 1 10 км слаб. ливневой дождь 9/9 600 м
[Cb cap]
+17.0 +15.7 92 +18 +19 1013.5 988.7 +14.8 0.6
12 23.08 штиль 0 500 м туман {ливн. осадки} 1/0
[]
+15.5 +15.2 98 +15 +15 1012.6 987.7 +24.3 0.0
00 24.08 штиль 0 10 км {туман} 10/0
[Ac trans Cs]
+16.7 +15.7 94 +17 +22 1013.0 988.2 +9.5
06 24.08 Ю 1
{11}
10 км в посл. час гроза {ливн. осадки} 9/9 600 м
[Cb cap]
+20.0 +18.1 89 +24 +25 комфорт 1009.9 985.5
12 24.08 штиль 0 20 км 4/3 600 м
[Cb cap Ci fib]
+15.6 +15.3 98 +15 +15 1010.9 986.0 +25.2 10
00 25.08 штиль 0 200 м туман ?/? +13.7 +13.6 99 +13 +13 1012.4 987.3 +9.6

 

Местоположение метеостанции Саскаль (Амурская область, Россия): широта 51.65 долгота 126.90 высота над уровнем моря 214 м.

В архиве по умолчанию представлена погода в Саскале за последнюю неделю. Архивные данные за месяц целиком и за предыдущие месяцы, начиная с января 2011 года, Вы можете получить, выбрав интересующий диапазон дат из раскрывающегося списка и нажав кнопку "Ввод!".


*Определитесь, кто Вы:
робот инопланетянин человек

Внимание! Время в таблицах - всемирное. Для получения местного времени необходимо прибавить поправку, которая равна 9 ч.

Смотрите также архив погоды в соседних городах и на ближайших метеорологических станциях:

Погода в Хума (Хэйлунцзян, Китай) (19 км)
Погода в Шимановске (Амурская область, Россия) (61 км)
Погода в Свободном (Амурская область, Россия) (86 км)
Погода в Сергеевке (Амурская область, Россия) (101 км)
Погода в Мазаново (Амурская область, Россия) (131 км)
Погода в Белогорске (Амурская область, Россия) (132 км)
Погода в Черняево (Амурская область, Россия) (140 км)
Погода в Благовещенске (Амурская область, Россия) (156 км)
Погода в Айгуне (Хэйлунцзян, Китай) (160 км)
Погода в Тыгде (Амурская область, Россия) (166 км)

Пояснения к столбцам:

Ветер - указаны скорость ветра в м/с - средняя за 10 мин, порывы в срок и между сроками (в фигурных скобках) и направление, откуда дует ветер: С - северный, СВ - северо-восточный, В - восточный, ЮВ - юго-восточный, Ю - южный, ЮЗ - юго-западный, З - западный, СЗ - северо-западный.
Видимость - горизонтальная дальность видимости в метрах или километрах. При видимости от 1 до 10 км при отсутствии осадков обычно наблюдается дымка, при ухудшении видимости до 1 км и менее - туман. В сухую погоду видимость может ухудшаться дымом, пылью или мглою.
Явления - указаны атмосферные явления, наблюдавшиеся в срок или в последний час перед сроком; фигурными скобками обозначены явления, наблюдавшиеся между сроками (за 1-3 часа до срока); квадратными скобками обозначены град или гололедные отложения с указанием их диаметра в мм.
Облачность - указаны через наклонную черту общая и нижняя облачность в баллах и высота нижней границы облаков в метрах; квадратными скобками обозначены формы облаков: Ci - перистые, Cs - перисто-слоистые, Cc - перисто-кучевые, Ac - высококучевые, As - высокослоистые, Sc - слоисто-кучевые, Ns - слоисто-дождевые, Cu - кучевые, Cb - кучево-дождевые. Подробнее классификацию облаков см. в Атласе облаков (PDF).
T - Температура воздуха - температура, измеренная на высоте 2 м над землей.
Td - Температура точки росы - температура, при понижении до которой содержащийся в воздухе водяной пар достигнет насыщения.
f - Относительная влажность воздуха - влажноcть воздуха, измеренная на высоте 2 м над землей.
Te - Эффективная температура - температура, которую ощущает одетый по сезону человек в тени. Характеристика душности погоды. При расчете учитывается влияние влажности воздуха и скорости ветра на теплоощущения человека.
Tes - Эффективная температура на солнце - температура, которую ощущает человек, с поправкой на солнечный нагрев. Характеристика знойности погоды. Зависит от высоты солнца над горизонтом, облачности и скорости ветра. Ночью, в пасмурную погоду, а также при ветре 12 м/с и более поправка равна нулю.
P - Атмосферное давление - приведенное к уровню моря атмосферное давление.
Po - Атмосферное давление - измеренное на уровне метеостанции атмосферное давление.
Tmin - Минимальная температура - минимум температуры воздуха на высоте 2 м над землей.
Tmax - Максимальная температура - максимум температуры воздуха на высоте 2 м над землей.
R - Количество осадков - Количество выпавших осадков за период времени, мм. При наведении курсора мыши на число - период времени, за который выпало указанное количество осадков.
R24 - Количество осадков - Количество выпавших осадков за 24 часа, мм.
S - Снежный покров - Высота снежного покрова, см. При наведении курсора мыши на число - состояние снежного покрова и степень покрытия местности в баллах.